Location: Plainartige
(45.6866°N, 1.7993°E)
Time: 06:07:47
(UTC+00:00)

Oscar 19 - Pass Details

Date: 04 July 2022
Orbit: 773 x 790 km, 98.8° (Epoch: 12 August)

Event Time Altitude Azimuth Distance (km) Brightness Sun altitude
Rises 02:08:25 0° 31° (NNE) 3,260 15.8 -15.2°
Reaches altitude 10° 02:11:41 10° 53° (NE) 2,326 14.2 -14.9°
Maximum altitude 02:14:45 16° 90° (E) 1,940 13.1 -14.6°
Drops below altitude 10° 02:17:49 10° 127° (SE) 2,317 13.1 -14.4°
Sets 02:21:03 0° 149° (SSE) 3,239 13.6 -14.0°
